Tracking 21607 objects as of 26-Oct-2020
HD Live streaming from Space Station
objects crossing your sky now

NAVSTAR 78 (USA 293)

Track NAVSTAR 78 (USA 293) now!
NAVSTAR 78 (USA 293) is classified as:


NORAD ID: 44506
Int'l Code: 2019-056A
Perigee: 20,160.7 km
Apogee: 20,218.7 km
Inclination: 55.3 °
Period: 718.0 minutes
Semi major axis: 26560 km
RCS: Unknown
Launch date: August 22, 2019
Source: United States (US)
Launch site: AIR FORCE EASTERN TEST RANGE (AFETR)
aabbcc
Your satellite tracking list
Your tracking list is empty




NASA's NSSDC Master Catalog

Two Line Element Set (TLE):
1 44506U 19056A   20299.52094844 -.00000074  00000-0  00000+0 0  9999
2 44506  55.3286  53.0177 0010918 175.3006 185.3549  2.00559892  8737
Source of the keplerian elements: AFSPC